User: anonymous   Login
Location: Unspecified
(0.0000°N, 0.0000°E)
Time: 08:42:34
(UTC+00:00)
Language:

Gonets-D1 - Orbit

View from above orbital plane
View from above orbital plane
View from above satellite
View from above satellite

Ground track
Ground track

The orbit data is extracted from the following two-line orbital elements,

1 24725U 97006A   17293.51586062 +.00000011 +00000-0 +15914-5 0  9994
2 24725 082.6048 123.2818 0010154 074.8381 285.3831 12.60666799951453
Epoch (UTC): 20 October 2017 12:22:50
Eccentricity: 0.0010154
inclination: 82.6048°
perigee height: 1412 km
apogee height: 1428 km
right ascension of ascending node: 123.2818°
argument of perigee: 74.8381°
revolutions per day: 12.60666799
mean anomaly at epoch: 285.3831°
orbit number at epoch: 95145

The dashed part of the orbit path shows where the satellite is in the earth's shadow,  

DLR